DW9433 Weather Reports


Display with metric or nautical units.
time (UTC)temp
F
wind
direction
speed
MPH
gust
MPH
rain 1hr
in
rain 24hr
in
rain mn
in
humidity
%
barometer
mb
20260902214535 96 5 0.0 0.0 0.00 0.00 0.00 51 1013.6
20260902213034 97 5 0.0 0.0 0.00 0.00 0.00 50 1013.8
20260902211532 98 35 0.0 1.0 0.00 0.00 0.00 48 1013.8
20260902210031 98 9 0.0 0.0 0.00 0.00 0.00 48 1013.8
20260902204537 98 172 0.0 0.0 0.00 0.00 0.00 45 1014.0
20260902203030 99 173 0.0 0.0 0.00 0.00 0.00 43 1014.1
20260902201526 98 155 0.0 1.0 0.00 0.00 0.00 45 1014.3
20260902200045 99 166 0.0 1.0 0.00 0.00 0.00 44 1014.6
20260902194527 99 325 0.0 1.0 0.00 0.00 0.00 47 1014.6
20260902193021 99 145 0.0 2.0 0.00 0.00 0.00 43 1014.9
20260902191519 99 50 0.0 0.0 0.00 0.00 0.00 46 1015.1
20260902190033 99 49 0.0 4.0 0.00 0.00 0.00 47 1015.2
20260902184518 99 184 0.0 1.0 0.00 0.00 0.00 47 1015.5
20260902183016 99 200 0.0 0.0 0.00 0.00 0.00 47 1015.6
20260902181515 100 171 0.0 1.0 0.00 0.00 0.00 47 1015.9
20260902180013 99 200 0.0 2.0 0.00 0.00 0.00 46 1016.0
20260902174512 99 243 0.0 3.0 0.00 0.00 0.00 47 1016.3
20260902173010 99 152 0.0 0.0 0.00 0.00 0.00 46 1016.3
20260902171509 98 180 0.0 4.0 0.00 0.00 0.00 48 1016.6
20260902170007 98 170 0.0 2.0 0.00 0.00 0.00 50 1016.9
20260902164506 98 237 0.0 1.0 0.00 0.00 0.00 51 1017.1
20260902163002 97 163 0.0 5.0 0.00 0.00 0.00 52 1017.3
20260902161558 96 49 0.0 1.0 0.00 0.00 0.00 58 1017.4
20260902160105 95 40 0.0 2.0 0.00 0.00 0.00 58 1017.4
20260902154556 95 41 0.0 1.0 0.00 0.00 0.00 59 1017.4
20260902153056 96 23 0.0 0.0 0.00 0.00 0.00 58 1017.5
20260902151556 95 221 0.0 0.0 0.00 0.00 0.00 61 1017.5
20260902150049 94 199 0.0 0.0 0.00 0.00 0.00 60 1017.5
20260902144545 92 200 0.0 0.0 0.00 0.00 0.00 62 1017.6
20260902143043 90 199 0.0 0.0 0.00 0.00 0.00 65 1017.5
20260902141539 89 199 0.0 0.0 0.00 0.00 0.00 69 1017.6
20260902140038 87 199 0.0 0.0 0.00 0.00 0.00 72 1017.6
20260902134529 84 200 0.0 0.0 0.00 0.00 0.00 75 1017.7
20260902133025 82 224 0.0 0.0 0.00 0.00 0.00 80 1017.6
20260902131523 79 224 0.0 0.0 0.00 0.00 0.00 85 1017.6
20260902130018 76 224 0.0 0.0 0.00 0.00 0.00 89 1017.6
20260902124518 75 224 0.0 0.0 0.00 0.00 0.00 91 1017.4
20260902123017 74 224 0.0 0.0 0.00 0.00 0.00 92 1017.3
20260902121515 73 224 0.0 0.0 0.00 0.00 0.00 92 1017.2
20260902120015 73 224 0.0 0.0 0.00 0.00 0.00 91 1017.0
20260902114522 73 224 0.0 0.0 0.00 0.00 0.00 91 1016.8
20260902113011 73 224 0.0 0.0 0.00 0.00 0.00 91 1016.8
20260902111509 73 224 0.0 0.0 0.00 0.00 0.00 91 1016.7
20260902110013 73 224 0.0 0.0 0.00 0.00 0.00 90 1016.5
20260902104507 74 224 0.0 0.0 0.00 0.00 0.00 90 1016.4
20260902103004 74 224 0.0 0.0 0.00 0.00 0.00 90 1016.4
20260902101502 74 224 0.0 0.0 0.00 0.00 0.00 89 1016.2
20260902100100 74 224 0.0 0.0 0.00 0.00 0.00 89 1016.1
20260902094559 74 224 0.0 0.0 0.00 0.00 0.00 89 1015.8
20260902093057 74 224 0.0 0.0 0.00 0.00 0.00 89 1015.8
20260902091556 75 224 0.0 0.0 0.00 0.00 0.00 88 1015.7
20260902090058 75 224 0.0 0.0 0.00 0.00 0.00 88 1015.7
20260902084559 75 224 0.0 0.0 0.00 0.00 0.00 88 1015.7
20260902083053 75 224 0.0 0.0 0.00 0.00 0.00 88 1015.7
20260902081553 75 224 0.0 0.0 0.00 0.00 0.00 86 1015.7
20260902080104 76 224 0.0 0.0 0.00 0.00 0.00 86 1015.7
20260902074549 76 224 0.0 0.0 0.00 0.00 0.00 86 1015.8
20260902073052 77 224 0.0 0.0 0.00 0.00 0.00 86 1015.8
20260902071551 77 224 0.0 0.0 0.00 0.00 0.00 85 1015.8
20260902070048 77 224 0.0 0.0 0.00 0.00 0.00 85 1015.8
20260902064551 77 224 0.0 0.0 0.00 0.00 0.00 85 1015.8
20260902063047 77 224 0.0 0.0 0.00 0.00 0.00 85 1015.8
20260902061548 77 224 0.0 0.0 0.00 0.00 0.00 84 1015.7
20260902060045 77 224 0.0 0.0 0.00 0.00 0.00 84 1015.9
20260902054541 78 224 0.0 0.0 0.00 0.00 0.00 83 1015.8
20260902053039 78 224 0.0 0.0 0.00 0.00 0.00 83 1015.7
20260902051537 78 224 0.0 0.0 0.00 0.00 0.00 83 1015.7
20260902050036 78 224 0.0 0.0 0.00 0.00 0.00 82 1015.5
20260902044533 79 224 0.0 0.0 0.00 0.00 0.00 82 1015.4
20260902043034 79 224 0.0 0.0 0.00 0.00 0.00 80 1015.4
20260902041534 80 224 0.0 0.0 0.00 0.00 0.00 80 1015.3
20260902040032 80 224 0.0 0.0 0.00 0.00 0.00 79 1015.4
20260902034532 80 224 0.0 0.0 0.00 0.00 0.00 77 1015.4
20260902033039 80 224 0.0 0.0 0.00 0.00 0.00 79 1015.5
20260902031534 80 224 0.0 0.0 0.00 0.00 0.00 80 1015.4
20260902030031 81 224 0.0 0.0 0.00 0.00 0.00 79 1015.3
20260902024530 81 224 0.0 0.0 0.00 0.00 0.00 79 1015.3
20260902023030 82 224 0.0 0.0 0.00 0.00 0.00 77 1015.1
20260902021535 82 224 0.0 0.0 0.00 0.00 0.00 76 1014.9
20260902020029 83 224 0.0 0.0 0.00 0.00 0.00 74 1014.9
20260902014536 84 224 0.0 0.0 0.00 0.00 0.00 73 1014.8
20260902013030 85 224 0.0 0.0 0.00 0.00 0.00 71 1014.7
20260902011536 86 224 0.0 0.0 0.00 0.00 0.00 69 1014.7
20260902010042 88 224 0.0 0.0 0.00 0.00 0.00 66 1014.6
20260902004533 90 224 0.0 0.0 0.00 0.00 0.00 62 1014.5
20260902003026 91 224 0.0 0.0 0.00 0.00 0.00 60 1014.4
20260902001526 92 224 0.0 0.0 0.00 0.00 0.00 56 1014.3
20260902000042 93 224 0.0 0.0 0.00 0.00 0.00 55 1014.4
20260901234549 94 167 0.0 0.0 0.00 0.00 0.00 52 1014.5
20260901233023 95 167 0.0 0.0 0.00 0.00 0.00 50 1014.6
20260901231538 96 173 0.0 2.0 0.00 0.00 0.00 49 1014.6
20260901230022 96 164 0.0 1.0 0.00 0.00 0.00 48 1014.6
20260901224529 96 147 0.0 3.0 0.00 0.00 0.00 48 1014.7
20260901223033 96 160 0.0 2.0 0.00 0.00 0.00 49 1014.6
20260901221527 97 148 0.0 1.0 0.00 0.00 0.00 48 1014.6
20260901220020 98 182 0.0 4.0 0.00 0.00 0.00 46 1014.6